TimeEDT,TemperatureF,Dew PointF,Humidity,Sea Level PressureIn,VisibilityMPH,Wind Direction,Wind SpeedMPH,Gust SpeedMPH,PrecipitationIn,Events,Conditions,WindDirDegrees,DateUTC
12:48 AM,39.2,39.2,100,-9999,0.0,NNW,10.4,-,N/A,Fog,Fog,330,2013-05-10 04:48:00
1:51 AM,41.0,37.4,87,-9999,50.0,NW,9.2,-,N/A,,Overcast,320,2013-05-10 05:51:00
2:48 AM,39.2,39.2,100,-9999,0.0,NNW,10.4,-,N/A,Fog,Fog,330,2013-05-10 06:48:00
3:54 AM,41.0,37.4,87,-9999,15.0,NNW,8.1,-,N/A,,Overcast,340,2013-05-10 07:54:00
4:49 AM,39.2,39.2,100,-9999,0.0,NNW,18.4,-,N/A,Fog,Fog,330,2013-05-10 08:49:00
5:53 AM,39.7,38.3,95,-9999,50.0,NNW,23.0,-,N/A,,Mostly Cloudy,340,2013-05-10 09:53:00
6:49 AM,39.2,39.2,100,-9999,0.0,NNW,25.3,-,N/A,Fog,Fog,330,2013-05-10 10:49:00
7:47 AM,41.0,41.0,100,-9999,0.0,North,19.6,-,N/A,Fog,Fog,350,2013-05-10 11:47:00
8:57 AM,41.0,41.0,100,-9999,0.1,NNW,18.4,-,N/A,Fog,Fog,340,2013-05-10 12:57:00
9:50 AM,41.0,41.0,100,-9999,0.0,North,10.4,-,N/A,Fog,Fog,350,2013-05-10 13:50:00
10:47 AM,42.8,42.8,100,-9999,0.1,North,4.6,-,N/A,Fog,Fog,350,2013-05-10 14:47:00
11:57 AM,44.6,44.6,100,-9999,0.1,WNW,9.2,-,N/A,Fog,Fog,290,2013-05-10 15:57:00
12:49 PM,44.6,44.6,100,-9999,0.1,WNW,11.5,-,N/A,Fog,Fog,290,2013-05-10 16:49:00
1:48 PM,48.2,48.2,100,-9999,0.1,West,8.1,-,N/A,Fog,Fog,280,2013-05-10 17:48:00
2:58 PM,50.0,42.8,76,-9999,1.0,SW,5.8,-,N/A,,Mostly Cloudy,230,2013-05-10 18:58:00
3:55 PM,48.2,42.8,82,-9999,50.0,WNW,8.1,-,N/A,Rain,Light Rain Showers,300,2013-05-10 19:55:00
4:56 PM,46.9,46.8,99,-9999,30.0,WNW,9.2,-,N/A,,Overcast,290,2013-05-10 20:56:00
5:52 PM,46.4,42.8,87,-9999,50.0,West,10.4,-,N/A,,Mostly Cloudy,280,2013-05-10 21:52:00
6:58 PM,46.4,44.6,93,-9999,50.0,West,6.9,-,N/A,,Mostly Cloudy,260,2013-05-10 22:58:00
7:49 PM,44.6,44.6,100,-9999,0.0,SW,10.4,-,N/A,Fog,Fog,230,2013-05-10 23:49:00
8:48 PM,44.6,44.6,100,-9999,0.0,SSW,18.4,25.3,N/A,Fog,Fog,210,2013-05-11 00:48:00
9:49 PM,44.6,44.6,100,-9999,0.0,SSW,23.0,32.2,N/A,Fog,Fog,200,2013-05-11 01:49:00
10:48 PM,44.6,44.6,100,-9999,0.0,SSW,28.8,-,N/A,Fog,Fog,200,2013-05-11 02:48:00
11:55 PM,44.6,44.6,100,-9999,0.0,SSW,32.2,39.1,N/A,Fog,Fog,200,2013-05-11 03:55:00